Time,TemperatureF,DewpointF,PressureIn,WindDirection,WindDirectionDegrees,WindSpeedMPH,WindSpeedGustMPH,Humidity,HourlyPrecipIn,Conditions,Clouds,dailyrainin,SoftwareType,DateUTC
2013-03-19 00:00:00,52.0,47.3,29.96,WNW,302,0.0,0.0,84,0.00,,,0.00,Wunderground v.1.15,2013-03-19 07:00:00,
2013-03-19 00:10:00,51.8,47.4,29.96,WNW,302,0.0,0.0,85,0.00,,,0.00,Wunderground v.1.15,2013-03-19 07:10:00,
2013-03-19 00:20:00,51.6,47.2,29.96,WNW,302,0.0,0.0,85,0.00,,,0.00,Wunderground v.1.15,2013-03-19 07:20:00,
2013-03-19 00:25:00,51.4,47.0,29.96,WNW,302,0.0,0.0,85,0.00,,,0.00,Wunderground v.1.15,2013-03-19 07:25:00,
2013-03-19 00:35:00,51.1,47.1,29.96,WNW,302,0.0,0.0,86,0.00,,,0.00,Wunderground v.1.15,2013-03-19 07:35:00,
2013-03-19 00:40:00,51.1,47.1,29.96,WNW,302,0.0,0.0,86,0.00,,,0.00,Wunderground v.1.15,2013-03-19 07:40:00,
2013-03-19 00:50:00,51.0,47.0,29.96,WNW,302,0.0,0.0,86,0.00,,,0.00,Wunderground v.1.15,2013-03-19 07:50:00,
2013-03-19 00:55:00,51.0,47.0,29.96,WNW,302,0.0,0.0,86,0.00,,,0.00,Wunderground v.1.15,2013-03-19 07:55:00,
2013-03-19 01:05:00,50.8,47.1,29.95,WNW,302,0.0,0.0,87,0.00,,,0.00,Wunderground v.1.15,2013-03-19 08:05:00,
2013-03-19 01:10:00,50.7,47.0,29.95,WNW,302,0.0,0.0,87,0.00,,,0.00,Wunderground v.1.15,2013-03-19 08:10:00,
2013-03-19 01:20:00,50.5,46.8,29.95,WNW,302,0.0,0.0,87,0.00,,,0.00,Wunderground v.1.15,2013-03-19 08:20:00,
2013-03-19 01:25:00,50.5,46.8,29.95,WNW,302,0.0,0.0,87,0.00,,,0.00,Wunderground v.1.15,2013-03-19 08:25:00,
2013-03-19 01:40:00,50.1,46.4,29.95,WNW,302,0.0,0.0,87,0.00,,,0.00,Wunderground v.1.15,2013-03-19 08:40:00,
2013-03-19 01:45:00,50.1,46.4,29.95,WNW,302,0.0,0.0,87,0.00,,,0.00,Wunderground v.1.15,2013-03-19 08:45:00,
2013-03-19 01:55:00,49.8,46.1,29.96,WNW,302,0.0,0.0,87,0.00,,,0.00,Wunderground v.1.15,2013-03-19 08:55:00,
2013-03-19 02:00:00,49.6,45.9,29.96,WNW,302,0.0,0.0,87,0.00,,,0.00,Wunderground v.1.15,2013-03-19 09:00:00,
2013-03-19 02:10:00,49.8,46.4,29.96,WNW,302,0.0,0.0,88,0.00,,,0.00,Wunderground v.1.15,2013-03-19 09:10:00,
2013-03-19 02:20:00,49.6,46.2,29.95,WNW,302,0.0,0.0,88,0.00,,,0.00,Wunderground v.1.15,2013-03-19 09:20:00,
2013-03-19 02:25:00,49.5,46.1,29.95,WNW,302,0.0,0.0,88,0.00,,,0.00,Wunderground v.1.15,2013-03-19 09:25:00,
2013-03-19 02:35:00,49.2,45.8,29.95,WNW,302,0.0,0.0,88,0.00,,,0.00,Wunderground v.1.15,2013-03-19 09:35:00,
2013-03-19 02:40:00,49.0,45.6,29.95,WNW,302,0.0,0.0,88,0.00,,,0.00,Wunderground v.1.15,2013-03-19 09:40:00,
2013-03-19 02:50:00,49.2,46.1,29.96,WNW,302,0.0,0.0,89,0.00,,,0.00,Wunderground v.1.15,2013-03-19 09:50:00,
2013-03-19 02:55:00,49.2,46.1,29.96,WNW,302,0.0,0.0,89,0.00,,,0.00,Wunderground v.1.15,2013-03-19 09:55:00,
2013-03-19 03:05:00,49.0,45.9,29.96,WNW,302,0.0,0.0,89,0.00,,,0.00,Wunderground v.1.15,2013-03-19 10:05:00,
2013-03-19 03:20:00,48.7,45.6,29.96,WNW,302,0.0,0.0,89,0.00,,,0.00,Wunderground v.1.15,2013-03-19 10:20:00,
2013-03-19 03:25:00,48.9,45.8,29.96,WNW,302,0.0,0.0,89,0.00,,,0.00,Wunderground v.1.15,2013-03-19 10:25:00,
2013-03-19 03:35:00,48.9,45.8,29.96,WNW,302,0.0,0.0,89,0.00,,,0.00,Wunderground v.1.15,2013-03-19 10:35:00,
2013-03-19 03:40:00,48.9,46.1,29.96,WNW,302,0.0,0.0,90,0.00,,,0.00,Wunderground v.1.15,2013-03-19 10:40:00,
2013-03-19 03:46:00,48.9,45.8,29.96,WNW,302,0.0,0.0,89,0.00,,,0.00,Wunderground v.1.15,2013-03-19 10:46:00,
2013-03-19 04:00:00,48.9,46.1,29.95,WNW,302,0.0,0.0,90,0.00,,,0.00,Wunderground v.1.15,2013-03-19 11:00:00,
2013-03-19 04:05:00,49.0,46.2,29.95,WNW,302,0.0,0.0,90,0.00,,,0.00,Wunderground v.1.15,2013-03-19 11:05:00,
2013-03-19 04:15:00,49.3,46.5,29.95,North,0,1.0,1.0,90,0.00,,,0.00,Wunderground v.1.15,2013-03-19 11:15:00,
2013-03-19 04:20:00,49.3,46.5,29.95,North,0,1.0,1.0,90,0.00,,,0.00,Wunderground v.1.15,2013-03-19 11:20:00,
2013-03-19 04:35:00,49.0,46.2,29.94,North,0,0.0,0.0,90,0.00,,,0.00,Wunderground v.1.15,2013-03-19 11:35:00,
2013-03-19 04:40:00,48.9,46.1,29.94,North,0,0.0,0.0,90,0.00,,,0.00,Wunderground v.1.15,2013-03-19 11:40:00,
2013-03-19 04:50:00,48.7,45.9,29.95,North,0,0.0,0.0,90,0.00,,,0.00,Wunderground v.1.15,2013-03-19 11:50:00,
2013-03-19 04:55:00,48.7,45.9,29.95,North,0,1.0,1.0,90,0.00,,,0.00,Wunderground v.1.15,2013-03-19 11:55:00,
2013-03-19 05:05:00,48.9,46.4,29.94,North,0,0.0,0.0,91,0.00,,,0.00,Wunderground v.1.15,2013-03-19 12:05:00,
2013-03-19 05:10:00,48.7,46.2,29.94,North,0,0.0,0.0,91,0.00,,,0.00,Wunderground v.1.15,2013-03-19 12:10:00,
2013-03-19 05:20:00,48.7,46.2,29.94,ENE,75,1.0,1.0,91,0.00,,,0.00,Wunderground v.1.15,2013-03-19 12:20:00,
2013-03-19 05:25:00,48.9,46.4,29.94,ENE,75,1.0,1.0,91,0.00,,,0.00,Wunderground v.1.15,2013-03-19 12:25:00,
2013-03-19 05:30:00,48.7,46.2,29.94,ENE,75,0.0,0.0,91,0.00,,,0.00,Wunderground v.1.15,2013-03-19 12:30:00,
2013-03-19 05:40:00,49.2,46.7,29.94,ENE,75,1.0,1.0,91,0.00,,,0.00,Wunderground v.1.15,2013-03-19 12:40:00,
2013-03-19 05:45:00,49.2,46.7,29.94,ENE,75,0.0,1.0,91,0.00,,,0.00,Wunderground v.1.15,2013-03-19 12:45:00,
2013-03-19 05:55:00,49.2,46.7,29.95,ENE,75,0.0,0.0,91,0.00,,,0.00,Wunderground v.1.15,2013-03-19 12:55:00,
2013-03-19 06:05:00,49.5,47.0,29.95,ENE,75,0.0,0.0,91,0.00,,,0.00,Wunderground v.1.15,2013-03-19 13:05:00,
2013-03-19 06:10:00,49.6,47.1,29.95,ENE,75,0.0,0.0,91,0.00,,,0.00,Wunderground v.1.15,2013-03-19 13:10:00,
2013-03-19 06:20:00,50.1,47.6,29.96,ENE,75,0.0,0.0,91,0.00,,,0.00,Wunderground v.1.15,2013-03-19 13:20:00,
2013-03-19 06:35:00,51.0,48.5,29.96,ENE,75,0.0,1.0,91,0.00,,,0.00,Wunderground v.1.15,2013-03-19 13:35:00,
2013-03-19 06:40:00,51.3,48.8,29.96,ENE,68,1.0,3.0,91,0.00,,,0.00,Wunderground v.1.15,2013-03-19 13:40:00,
2013-03-19 06:50:00,51.7,49.2,29.95,ENE,68,1.0,1.0,91,0.00,,,0.00,Wunderground v.1.15,2013-03-19 13:50:00,
2013-03-19 06:55:00,51.8,49.3,29.95,ENE,68,1.0,1.0,91,0.00,,,0.00,Wunderground v.1.15,2013-03-19 13:55:00,
2013-03-19 07:05:00,52.0,49.5,29.96,ENE,68,0.0,0.0,91,0.00,,,0.00,Wunderground v.1.15,2013-03-19 14:05:00,
2013-03-19 07:10:00,52.0,49.5,29.96,ENE,68,0.0,0.0,91,0.00,,,0.00,Wunderground v.1.15,2013-03-19 14:10:00,
2013-03-19 07:20:00,52.3,49.8,29.97,ENE,68,0.0,0.0,91,0.00,,,0.00,Wunderground v.1.15,2013-03-19 14:20:00,
2013-03-19 07:25:00,52.3,49.8,29.97,ENE,68,0.0,0.0,91,0.00,,,0.00,Wunderground v.1.15,2013-03-19 14:25:00,
2013-03-19 07:35:00,52.3,49.8,29.98,ENE,68,0.0,0.0,91,0.00,,,0.00,Wunderground v.1.15,2013-03-19 14:35:00,
2013-03-19 07:50:00,52.6,50.0,29.98,ENE,68,0.0,0.0,91,0.00,,,0.00,Wunderground v.1.15,2013-03-19 14:50:00,
2013-03-19 07:55:00,52.9,50.3,29.98,ENE,68,0.0,0.0,91,0.00,,,0.00,Wunderground v.1.15,2013-03-19 14:55:00,
2013-03-19 08:05:00,53.2,50.6,29.98,ENE,68,0.0,0.0,91,0.00,,,0.00,Wunderground v.1.15,2013-03-19 15:05:00,
2013-03-19 08:10:00,53.3,50.7,29.98,ENE,68,0.0,0.0,91,0.00,,,0.00,Wunderground v.1.15,2013-03-19 15:10:00,
2013-03-19 08:20:00,53.3,50.4,29.99,ENE,68,0.0,2.0,90,0.00,,,0.00,Wunderground v.1.15,2013-03-19 15:20:00,
2013-03-19 08:35:00,53.6,50.7,30.00,ENE,68,0.0,0.0,90,0.00,,,0.00,Wunderground v.1.15,2013-03-19 15:35:00,
2013-03-19 08:45:00,53.9,50.7,30.00,ENE,68,0.0,0.0,89,0.00,,,0.00,Wunderground v.1.15,2013-03-19 15:45:00,
2013-03-19 08:55:00,54.2,50.7,30.00,ENE,68,0.0,0.0,88,0.00,,,0.00,Wunderground v.1.15,2013-03-19 15:55:00,
2013-03-19 09:00:00,54.5,51.0,30.00,ENE,68,0.0,0.0,88,0.00,,,0.00,Wunderground v.1.15,2013-03-19 16:00:00,
2013-03-19 09:10:00,54.8,51.0,30.01,NW,309,1.0,1.0,87,0.00,,,0.00,Wunderground v.1.15,2013-03-19 16:10:00,
2013-03-19 09:15:00,54.7,50.6,30.01,SW,234,2.0,2.0,86,0.00,,,0.00,Wunderground v.1.15,2013-03-19 16:15:00,
2013-03-19 09:25:00,55.0,50.6,30.00,WSW,241,2.0,2.0,85,0.00,,,0.00,Wunderground v.1.15,2013-03-19 16:25:00,
2013-03-19 09:30:00,55.4,50.6,30.00,SSE,151,1.0,2.0,84,0.00,,,0.00,Wunderground v.1.15,2013-03-19 16:30:00,
2013-03-19 09:45:00,56.0,50.9,30.01,SE,133,1.0,2.0,83,0.00,,,0.00,Wunderground v.1.15,2013-03-19 16:45:00,
2013-03-19 09:50:00,56.3,50.9,30.01,SE,134,1.0,2.0,82,0.00,,,0.00,Wunderground v.1.15,2013-03-19 16:50:00,
2013-03-19 10:05:00,56.8,50.7,30.00,ESE,113,1.0,1.0,80,0.00,,,0.00,Wunderground v.1.15,2013-03-19 17:05:00,
2013-03-19 10:10:00,56.9,50.5,30.00,SSW,202,1.0,2.0,79,0.00,,,0.00,Wunderground v.1.15,2013-03-19 17:10:00,
2013-03-19 10:15:00,57.1,50.3,30.00,SSE,161,2.0,2.0,78,0.00,,,0.00,Wunderground v.1.15,2013-03-19 17:15:00,
2013-03-19 10:25:00,57.2,50.1,30.00,SSW,196,2.0,3.0,77,0.00,,,0.00,Wunderground v.1.15,2013-03-19 17:25:00,
2013-03-19 10:30:00,57.4,49.9,30.00,SW,223,2.0,3.0,76,0.00,,,0.00,Wunderground v.1.15,2013-03-19 17:30:00,
2013-03-19 10:35:00,57.5,50.0,30.00,SW,219,3.0,3.0,76,0.00,,,0.00,Wunderground v.1.15,2013-03-19 17:35:00,
2013-03-19 10:45:00,57.8,49.9,30.00,SSW,209,2.0,2.0,75,0.00,,,0.00,Wunderground v.1.15,2013-03-19 17:45:00,
2013-03-19 10:50:00,58.1,49.9,30.00,SSE,147,1.0,2.0,74,0.00,,,0.00,Wunderground v.1.15,2013-03-19 17:50:00,
2013-03-19 11:05:00,58.7,50.1,30.00,SSE,161,1.0,2.0,73,0.00,,,0.00,Wunderground v.1.15,2013-03-19 18:05:00,
2013-03-19 11:10:00,58.9,50.3,30.00,SW,215,1.0,2.0,73,0.00,,,0.00,Wunderground v.1.15,2013-03-19 18:10:00,
2013-03-19 11:20:00,59.7,50.3,30.00,SW,229,1.0,2.0,71,0.00,,,0.00,Wunderground v.1.15,2013-03-19 18:20:00,
2013-03-19 11:35:00,60.3,50.5,30.00,SSE,150,1.0,1.0,70,0.00,,,0.00,Wunderground v.1.15,2013-03-19 18:35:00,
2013-03-19 11:40:00,60.5,50.7,30.00,SW,234,1.0,4.0,70,0.00,,,0.00,Wunderground v.1.15,2013-03-19 18:40:00,
2013-03-19 11:55:00,60.9,50.7,30.00,SE,143,2.0,3.0,69,0.00,,,0.00,Wunderground v.1.15,2013-03-19 18:55:00,
2013-03-19 12:00:00,61.2,50.9,30.00,SW,229,2.0,3.0,69,0.00,,,0.00,Wunderground v.1.15,2013-03-19 19:00:00,
2013-03-19 12:10:00,61.6,50.9,30.00,WSW,258,3.0,5.0,68,0.00,,,0.00,Wunderground v.1.15,2013-03-19 19:10:00,
2013-03-19 12:15:00,61.7,51.0,30.00,WNW,282,3.0,5.0,68,0.00,,,0.00,Wunderground v.1.15,2013-03-19 19:15:00,
2013-03-19 12:25:00,62.4,50.9,29.99,WSW,241,3.0,6.0,66,0.00,,,0.00,Wunderground v.1.15,2013-03-19 19:25:00,
2013-03-19 12:30:00,62.2,50.7,29.99,SSW,213,3.0,6.0,66,0.00,,,0.00,Wunderground v.1.15,2013-03-19 19:30:00,
2013-03-19 12:41:00,62.5,51.4,29.99,South,181,5.0,7.0,67,0.00,,,0.00,Wunderground v.1.15,2013-03-19 19:41:00,
2013-03-19 12:45:00,62.8,50.9,29.98,SW,224,5.0,7.0,65,0.00,,,0.00,Wunderground v.1.15,2013-03-19 19:45:00,
2013-03-19 12:50:00,63.2,51.2,29.98,South,184,4.0,7.0,65,0.00,,,0.00,Wunderground v.1.15,2013-03-19 19:50:00,
2013-03-19 12:55:00,63.3,50.9,29.98,SSW,205,3.0,6.0,64,0.00,,,0.00,Wunderground v.1.15,2013-03-19 19:55:00,
2013-03-19 13:15:00,63.3,51.3,29.98,SSE,164,3.0,7.0,65,0.00,,,0.00,Wunderground v.1.15,2013-03-19 20:15:00,
2013-03-19 13:20:00,63.3,51.3,29.98,SW,226,4.0,7.0,65,0.00,,,0.00,Wunderground v.1.15,2013-03-19 20:20:00,
2013-03-19 13:31:00,62.7,51.6,29.97,SW,227,5.0,6.0,67,0.00,,,0.00,Wunderground v.1.15,2013-03-19 20:31:00,
2013-03-19 13:35:00,63.7,51.7,29.97,South,184,5.0,8.0,65,0.00,,,0.00,Wunderground v.1.15,2013-03-19 20:35:00,
2013-03-19 13:50:00,63.7,52.1,29.96,South,189,5.0,5.0,66,0.00,,,0.00,Wunderground v.1.15,2013-03-19 20:50:00,
2013-03-19 13:55:00,64.3,51.9,29.96,SSW,208,5.0,8.0,64,0.00,,,0.00,Wunderground v.1.15,2013-03-19 20:55:00,
2013-03-19 14:00:00,64.3,51.9,29.97,SW,217,5.0,5.0,64,0.00,,,0.00,Wunderground v.1.15,2013-03-19 21:00:00,
2013-03-19 14:05:00,64.0,51.6,29.97,SSW,208,6.0,9.0,64,0.00,,,0.00,Wunderground v.1.15,2013-03-19 21:05:00,
2013-03-19 14:15:00,63.3,51.7,29.96,South,191,7.0,7.0,66,0.00,,,0.00,Wunderground v.1.15,2013-03-19 21:15:00,
2013-03-19 14:20:00,63.5,51.5,29.96,SW,222,6.0,7.0,65,0.00,,,0.00,Wunderground v.1.15,2013-03-19 21:20:00,
2013-03-19 14:25:00,63.5,51.5,29.96,SE,138,6.0,6.0,65,0.00,,,0.00,Wunderground v.1.15,2013-03-19 21:25:00,
2013-03-19 14:35:00,63.2,51.6,29.96,WSW,244,6.0,6.0,66,0.00,,,0.00,Wunderground v.1.15,2013-03-19 21:35:00,
2013-03-19 14:55:00,62.7,51.6,29.96,SSW,193,7.0,7.0,67,0.00,,,0.00,Wunderground v.1.15,2013-03-19 21:55:00,
2013-03-19 15:00:00,62.8,51.3,29.96,SW,229,6.0,8.0,66,0.00,,,0.00,Wunderground v.1.15,2013-03-19 22:00:00,
2013-03-19 15:10:00,61.9,51.2,29.96,South,181,8.0,8.0,68,0.00,,,0.00,Wunderground v.1.15,2013-03-19 22:10:00,
2013-03-19 15:20:00,61.9,51.2,29.95,SW,220,7.0,10.0,68,0.00,,,0.00,Wunderground v.1.15,2013-03-19 22:20:00,
2013-03-19 15:30:00,62.4,51.7,29.95,SSW,209,8.0,8.0,68,0.00,,,0.00,Wunderground v.1.15,2013-03-19 22:30:00,
2013-03-19 15:45:00,62.2,51.1,29.95,South,178,6.0,6.0,67,0.00,,,0.00,Wunderground v.1.15,2013-03-19 22:45:00,
2013-03-19 15:55:00,62.7,51.6,29.95,SSW,200,6.0,6.0,67,0.00,,,0.00,Wunderground v.1.15,2013-03-19 22:55:00,
2013-03-19 16:05:00,62.7,51.6,29.95,South,182,7.0,7.0,67,0.00,,,0.00,Wunderground v.1.15,2013-03-19 23:05:00,
2013-03-19 16:10:00,63.3,51.3,29.95,SSW,212,6.0,7.0,65,0.00,,,0.00,Wunderground v.1.15,2013-03-19 23:10:00,
2013-03-19 16:20:00,63.2,51.2,29.95,SSW,209,5.0,5.0,65,0.00,,,0.00,Wunderground v.1.15,2013-03-19 23:20:00,
2013-03-19 16:25:00,63.2,50.4,29.95,SW,217,5.0,6.0,63,0.00,,,0.00,Wunderground v.1.15,2013-03-19 23:25:00,
2013-03-19 16:40:00,62.2,50.7,29.95,SW,229,6.0,6.0,66,0.00,,,0.00,Wunderground v.1.15,2013-03-19 23:40:00,
2013-03-19 17:01:00,62.0,50.5,29.95,SW,216,5.0,8.0,66,0.00,,,0.00,Wunderground v.1.15,2013-03-20 00:01:00,
2013-03-19 17:05:00,62.0,50.5,29.95,SSW,213,6.0,8.0,66,0.00,,,0.00,Wunderground v.1.15,2013-03-20 00:05:00,
2013-03-19 17:10:00,62.2,51.1,29.95,SW,234,5.0,8.0,67,0.00,,,0.00,Wunderground v.1.15,2013-03-20 00:10:00,
2013-03-19 17:20:00,61.6,50.9,29.95,SSW,203,6.0,7.0,68,0.00,,,0.00,Wunderground v.1.15,2013-03-20 00:20:00,
2013-03-19 17:25:00,61.1,50.8,29.95,SW,216,5.0,7.0,69,0.00,,,0.00,Wunderground v.1.15,2013-03-20 00:25:00,
2013-03-19 17:36:00,60.6,50.8,29.95,SSE,160,5.0,6.0,70,0.00,,,0.00,Wunderground v.1.15,2013-03-20 00:36:00,
2013-03-19 17:40:00,60.5,50.7,29.95,SSW,200,5.0,7.0,70,0.00,,,0.00,Wunderground v.1.15,2013-03-20 00:40:00,
2013-03-19 17:55:00,59.5,50.5,29.95,SSW,210,5.0,6.0,72,0.00,,,0.00,Wunderground v.1.15,2013-03-20 00:55:00,
2013-03-19 18:00:00,59.5,50.8,29.95,SSW,212,4.0,6.0,73,0.00,,,0.00,Wunderground v.1.15,2013-03-20 01:00:00,
2013-03-19 18:11:00,58.6,50.3,29.95,SSW,203,6.0,6.0,74,0.00,,,0.00,Wunderground v.1.15,2013-03-20 01:11:00,
2013-03-19 18:20:00,58.4,50.5,29.95,South,186,4.0,6.0,75,0.00,,,0.00,Wunderground v.1.15,2013-03-20 01:20:00,
2013-03-19 18:31:00,58.3,50.4,29.96,SSW,203,2.0,2.0,75,0.00,,,0.00,Wunderground v.1.15,2013-03-20 01:31:00,
2013-03-19 18:35:00,58.1,50.6,29.96,SW,223,3.0,3.0,76,0.00,,,0.00,Wunderground v.1.15,2013-03-20 01:35:00,
2013-03-19 18:40:00,57.8,50.3,29.96,SW,222,3.0,6.0,76,0.00,,,0.00,Wunderground v.1.15,2013-03-20 01:40:00,
2013-03-19 18:50:00,57.1,50.3,29.95,SW,227,4.0,5.0,78,0.00,,,0.00,Wunderground v.1.15,2013-03-20 01:50:00,
2013-03-19 18:55:00,56.8,50.0,29.95,SW,232,5.0,5.0,78,0.00,,,0.00,Wunderground v.1.15,2013-03-20 01:55:00,
2013-03-19 19:05:00,56.3,49.9,29.96,SW,217,4.0,4.0,79,0.00,,,0.00,Wunderground v.1.15,2013-03-20 02:05:00,
2013-03-19 19:10:00,56.3,49.9,29.96,SW,236,3.0,4.0,79,0.00,,,0.00,Wunderground v.1.15,2013-03-20 02:10:00,
2013-03-19 19:15:00,56.3,49.9,29.96,SW,233,2.0,2.0,79,0.00,,,0.00,Wunderground v.1.15,2013-03-20 02:15:00,
2013-03-19 19:30:00,56.0,49.9,29.97,SW,223,3.0,3.0,80,0.00,,,0.00,Wunderground v.1.15,2013-03-20 02:30:00,
2013-03-19 19:35:00,55.8,49.7,29.97,WSW,256,4.0,5.0,80,0.00,,,0.00,Wunderground v.1.15,2013-03-20 02:35:00,
2013-03-19 19:50:00,55.7,50.0,29.97,SSW,212,5.0,5.0,81,0.00,,,0.00,Wunderground v.1.15,2013-03-20 02:50:00,
2013-03-19 19:55:00,55.7,50.0,29.97,SSW,203,4.0,5.0,81,0.00,,,0.00,Wunderground v.1.15,2013-03-20 02:55:00,
2013-03-19 20:05:00,55.5,49.8,29.98,SSW,210,0.0,0.0,81,0.00,,,0.00,Wunderground v.1.15,2013-03-20 03:05:00,
2013-03-19 20:10:00,55.5,50.1,29.98,SSW,210,1.0,1.0,82,0.00,,,0.00,Wunderground v.1.15,2013-03-20 03:10:00,
2013-03-19 20:15:00,55.5,50.1,29.98,SSW,210,1.0,1.0,82,0.00,,,0.00,Wunderground v.1.15,2013-03-20 03:15:00,
2013-03-19 20:25:00,55.5,50.1,29.98,SSW,210,1.0,1.0,82,0.00,,,0.00,Wunderground v.1.15,2013-03-20 03:25:00,
2013-03-19 20:45:00,55.5,49.8,29.98,NW,319,2.0,2.0,81,0.00,,,0.00,Wunderground v.1.15,2013-03-20 03:45:00,
2013-03-19 20:55:00,55.5,49.4,29.98,NW,316,3.0,3.0,80,0.00,,,0.00,Wunderground v.1.15,2013-03-20 03:55:00,
2013-03-19 21:00:00,55.5,49.4,29.98,NW,316,3.0,3.0,80,0.00,,,0.00,Wunderground v.1.15,2013-03-20 04:00:00,
2013-03-19 21:11:00,55.5,49.4,29.99,NW,316,3.0,3.0,80,0.00,,,0.00,Wunderground v.1.15,2013-03-20 04:11:00,
2013-03-19 21:15:00,55.5,49.4,30.00,NW,316,2.0,3.0,80,0.00,,,0.00,Wunderground v.1.15,2013-03-20 04:15:00,
2013-03-19 21:20:00,55.5,49.4,30.00,NW,316,2.0,3.0,80,0.00,,,0.00,Wunderground v.1.15,2013-03-20 04:20:00,
2013-03-19 21:25:00,55.5,49.4,30.00,NW,319,1.0,3.0,80,0.00,,,0.00,Wunderground v.1.15,2013-03-20 04:25:00,
2013-03-19 21:41:00,55.4,49.3,30.00,NW,311,2.0,2.0,80,0.00,,,0.00,Wunderground v.1.15,2013-03-20 04:41:00,
2013-03-19 21:45:00,55.4,49.7,30.00,NW,311,1.0,2.0,81,0.00,,,0.00,Wunderground v.1.15,2013-03-20 04:45:00,
2013-03-19 21:50:00,55.4,49.7,30.00,NW,311,2.0,2.0,81,0.00,,,0.00,Wunderground v.1.15,2013-03-20 04:50:00,
2013-03-19 21:55:00,55.4,49.7,30.00,NW,311,1.0,1.0,81,0.00,,,0.00,Wunderground v.1.15,2013-03-20 04:55:00,
2013-03-19 22:00:00,55.2,49.5,30.00,NW,311,1.0,1.0,81,0.00,,,0.00,Wunderground v.1.15,2013-03-20 05:00:00,
2013-03-19 22:15:00,55.2,49.5,30.00,NW,311,1.0,1.0,81,0.00,,,0.00,Wunderground v.1.15,2013-03-20 05:15:00,
2013-03-19 22:20:00,55.2,49.5,30.00,NW,311,1.0,1.0,81,0.00,,,0.00,Wunderground v.1.15,2013-03-20 05:20:00,
2013-03-19 22:25:00,55.1,49.4,30.00,NW,311,0.0,0.0,81,0.00,,,0.00,Wunderground v.1.15,2013-03-20 05:25:00,
2013-03-19 22:30:00,55.1,49.4,30.00,NW,311,0.0,0.0,81,0.00,,,0.00,Wunderground v.1.15,2013-03-20 05:30:00,
2013-03-19 22:35:00,55.1,49.4,30.00,NW,311,0.0,0.0,81,0.00,,,0.00,Wunderground v.1.15,2013-03-20 05:35:00,
2013-03-19 22:40:00,55.1,49.4,30.00,NW,311,1.0,2.0,81,0.00,,,0.00,Wunderground v.1.15,2013-03-20 05:40:00,
2013-03-19 22:45:00,55.1,49.4,30.01,NW,311,1.0,2.0,81,0.00,,,0.00,Wunderground v.1.15,2013-03-20 05:45:00,
2013-03-19 22:55:00,55.0,49.6,30.01,NW,311,0.0,0.0,82,0.00,,,0.00,Wunderground v.1.15,2013-03-20 05:55:00,
2013-03-19 23:00:00,54.8,49.4,30.00,NW,311,0.0,0.0,82,0.00,,,0.00,Wunderground v.1.15,2013-03-20 06:00:00,
2013-03-19 23:10:00,54.7,49.3,30.00,NW,311,1.0,2.0,82,0.00,,,0.00,Wunderground v.1.15,2013-03-20 06:10:00,
2013-03-19 23:20:00,54.7,49.6,30.01,NW,311,1.0,1.0,83,0.00,,,0.00,Wunderground v.1.15,2013-03-20 06:20:00,
2013-03-19 23:31:00,54.4,49.3,30.00,NW,311,0.0,0.0,83,0.00,,,0.00,Wunderground v.1.15,2013-03-20 06:31:00,
2013-03-19 23:35:00,54.2,49.1,30.00,NW,311,0.0,0.0,83,0.00,,,0.00,Wunderground v.1.15,2013-03-20 06:35:00,
2013-03-19 23:40:00,54.1,49.1,30.00,NW,311,0.0,0.0,83,0.00,,,0.00,Wunderground v.1.15,2013-03-20 06:40:00,
2013-03-19 23:50:00,53.8,48.8,30.00,NW,311,0.0,0.0,83,0.00,,,0.00,Wunderground v.1.15,2013-03-20 06:50:00,
2013-03-19 23:55:00,53.8,48.8,30.00,NW,311,0.0,0.0,83,0.00,,,0.00,Wunderground v.1.15,2013-03-20 06:55:00,